[[{"header":{"parameterUnit":"m.s-1","parameterCategory":1,"la1":30.2992,"la2":30.254,"lo1":-89.0895,"lo2":-89.0443,"dy":0.0025,"dx":0.0025,"nx":19,"ny":19,"refTime":"2026-05-18T03:00:00:Z","depth":0,"parameterNumber":2,"parameterNumberName":"U-component_of_WINDS"},"data":[0,0,0,-4.1529,-4.1531,-4.1626,-4.1627,-4.1752,-4.1753,0,0,0,0,0,0,0,0,0,0,0,-4.1502,-4.1503,-4.1529,-4.1531,-4.1626,-4.1627,-4.1752,-4.1753,0,0,0,0,0,0,0,0,0,0,0,-4.1502,-4.1503,-4.1504,-4.1532,-4.1626,-4.1627,-4.1752,-4.1679,0,0,0,0,0,0,0,0,0,0,-4.1586,-4.1562,-4.1502,-4.1504,-4.1532,-4.1626,-4.1627,-4.1675,-4.1683,-4.1711,0,-4.1734,0,-4.1746,-4.1762,-4.1762,0,0,0,-4.153,-4.1555,-4.158,-4.1504,-4.1533,-4.1626,-4.1583,-4.168,-4.1689,-4.1721,-4.1736,-4.174,-4.1748,-4.1763,-4.1763,-4.1921,-4.1922,0,0,-4.1525,-4.152,-4.1573,-4.1586,-4.157,-4.158,-4.1586,-4.1685,-4.1701,-4.1736,-4.1743,-4.175,-4.1764,-4.1765,-4.192,-4.1921,0,0,0,-4.1511,-4.1516,-4.1538,-4.1581,-4.1597,-4.1583,-4.159,-4.1696,-4.1704,-4.1745,-4.1751,-4.1764,-4.1766,-4.192,-4.1921,-4.1953,0,0,0,-4.1507,-4.1508,-4.1536,-4.1534,-4.1596,-4.1648,-4.1599,-4.1697,-4.1709,-4.1751,-4.1764,-4.1767,-4.1919,-4.192,-4.195,-4.1968,0,0,0,-4.1495,-4.1506,-4.152,-4.1533,-4.1574,-4.1646,-4.166,-4.17,-4.1713,-4.1762,-4.1767,-4.1918,-4.192,-4.1948,-4.1964,-4.2008,0,0,0,-4.1481,-4.1547,-4.1521,-4.1598,-4.1573,-4.1666,-4.1659,-4.1729,-4.1775,-4.1765,-4.1919,-4.1921,-4.1947,-4.1962,-4.2005,-4.2042,-4.2057,0,0,-4.1562,-4.1557,-4.1603,-4.1582,-4.1677,-4.1652,-4.1753,-4.1801,-4.1811,-4.1884,-4.1888,-4.1951,-4.1964,-4.2007,-4.2148,-4.2159,0,0,0,-4.1627,-4.1659,-4.1686,-4.173,-4.1768,-4.1803,-4.1836,-4.1855,-4.1917,-4.1847,-4.1979,-4.1987,-4.2013,-4.2031,-4.2041,-4.2063,-4.1929,-4.1929,-4.1929,-4.1731,-4.1741,-4.1818,-4.184,-4.1883,-4.1918,-4.1954,-4.1985,-4.1982,-4.2013,-4.2034,-4.2118,-4.2139,-4.2146,-4.217,-4.2056,-4.2056,-4.2056,-4.2056,-4.1849,-4.1897,-4.1893,-4.1966,-4.1977,-4.2039,-4.2077,-4.2073,-4.2133,-4.2102,-4.2126,-4.209,-4.2159,-4.218,-4.2059,-4.2058,-4.2058,-4.2058,-4.2058,-4.1917,-4.1942,-4.1963,-4.2029,-4.2079,-4.21,-4.2158,-4.2167,-4.2175,-4.2198,-4.2221,-4.2221,-4.2221,-4.2209,-4.221,-4.221,-4.221,-4.221,-4.221,-4.1979,-4.2002,-4.2049,-4.2097,-4.2127,-4.2169,-4.2207,-4.2237,-4.2273,-4.2275,-4.2275,-4.2269,-4.2165,-4.2137,-4.2215,-4.2214,-4.2214,-4.2213,-4.2213,-4.2092,-4.2068,-4.214,-4.2171,-4.2229,-4.2279,-4.229,-4.2352,-4.2379,-4.2407,-4.2398,-4.232,-4.2315,-4.2307,-4.2285,-4.2396,-4.2396,-4.2396,-4.2396,-4.2148,-4.2147,-4.2224,-4.2272,-4.2321,-4.2339,-4.2422,-4.2454,-4.2483,-4.25,-4.2486,-4.2458,-4.2449,-4.245,-4.2439,-4.2418,-4.256,-4.256,-4.2561,-4.2218,-4.2223,-4.2291,-4.2318,-4.2365,-4.2405,-4.2485,-4.2542,-4.257,-4.2567,-4.2514,-4.2508,-4.2462,-4.2446,-4.2439,-4.2422,-4.2383,0,0]},{"header":{"parameterUnit":"m.s-1","parameterCategory":1,"la1":30.2992,"la2":30.254,"lo1":-89.0895,"lo2":-89.0443,"dy":0.0025,"dx":0.0025,"nx":19,"ny":19,"refTime":"2026-05-18T03:00:00:Z","depth":0,"parameterNumber":3,"parameterNumberName":"V-component_of_WINDS"},"data":[0,0,0,5.5262,5.5262,5.5259,5.5259,5.5255,5.5255,0,0,0,0,0,0,0,0,0,0,0,5.5263,5.5263,5.5262,5.5262,5.5259,5.5259,5.5255,5.5255,0,0,0,0,0,0,0,0,0,0,0,5.5263,5.5263,5.5263,5.5262,5.5259,5.5259,5.5255,5.5257,0,0,0,0,0,0,0,0,0,0,5.5259,5.5261,5.5263,5.5263,5.5262,5.5259,5.5259,5.5257,5.5257,5.5256,0,5.5257,0,5.5256,5.5255,5.5255,0,0,0,5.5261,5.5261,5.5261,5.5263,5.5262,5.5259,5.526,5.5257,5.5257,5.5256,5.5257,5.5257,5.5256,5.5255,5.5255,5.5258,5.5258,0,0,5.5261,5.5262,5.5261,5.5261,5.5262,5.526,5.526,5.5257,5.5257,5.5257,5.5257,5.5256,5.5255,5.5255,5.5258,5.5258,0,0,0,5.5262,5.5262,5.5262,5.5261,5.526,5.526,5.526,5.5257,5.5257,5.5257,5.5256,5.5255,5.5255,5.5258,5.5258,5.5263,0,0,0,5.5262,5.5263,5.5262,5.5262,5.5261,5.5259,5.526,5.5257,5.5257,5.5256,5.5255,5.5255,5.5258,5.5258,5.5263,5.5265,0,0,0,5.5263,5.5263,5.5263,5.5263,5.5262,5.5259,5.5259,5.5257,5.5257,5.5255,5.5255,5.5258,5.5258,5.5263,5.5264,5.5267,0,0,0,5.5264,5.5266,5.5263,5.5266,5.5262,5.5263,5.5259,5.5259,5.5258,5.5255,5.5258,5.5258,5.5262,5.5264,5.5266,5.5269,5.527,0,0,5.5267,5.5266,5.5268,5.5265,5.5267,5.5263,5.5265,5.5262,5.526,5.5259,5.5259,5.5263,5.5264,5.5267,5.5277,5.5278,0,0,0,5.5269,5.527,5.5271,5.5271,5.527,5.5269,5.5266,5.5266,5.5265,5.526,5.5264,5.5265,5.5266,5.5267,5.5268,5.5269,5.5259,5.5259,5.5259,5.5275,5.5274,5.5277,5.5276,5.5276,5.5274,5.5274,5.5272,5.5269,5.5271,5.527,5.5277,5.5278,5.5279,5.528,5.5271,5.5271,5.5271,5.5271,5.528,5.5282,5.5281,5.5282,5.5281,5.5282,5.5281,5.5279,5.528,5.5276,5.5277,5.5274,5.528,5.5281,5.5272,5.5272,5.5272,5.5272,5.5272,5.5284,5.5284,5.5285,5.5287,5.5288,5.5287,5.5288,5.5286,5.5284,5.5286,5.5285,5.5285,5.5285,5.5286,5.5286,5.5286,5.5286,5.5286,5.5286,5.5287,5.5288,5.529,5.5291,5.5292,5.5293,5.5292,5.5293,5.5293,5.5291,5.5291,5.5288,5.5281,5.5279,5.5286,5.5286,5.5286,5.5286,5.5286,5.5292,5.5292,5.5295,5.5296,5.5298,5.53,5.5299,5.53,5.53,5.5301,5.5299,5.5294,5.5292,5.5291,5.529,5.5299,5.5299,5.5299,5.5299,5.5295,5.5295,5.5299,5.5301,5.5303,5.5303,5.5307,5.5307,5.5306,5.5306,5.5305,5.5303,5.5302,5.5301,5.53,5.5299,5.531,5.531,5.531,5.5299,5.5299,5.5302,5.5304,5.5306,5.5307,5.5311,5.5313,5.5312,5.5311,5.5307,5.5306,5.5303,5.5302,5.5299,5.5298,5.5295,0,0]}]]